This is the latest recevied weather packets stored in our database for station/object KC9DRE. If no packets are shown the sender has not sent any weather packets the latest 10 day(s).
| Time | Temp. | Humidity | Pressure | Rain* | Wind** | Luminosity | Snow |
|---|---|---|---|---|---|---|---|
| 1778290637 | 16.67° C | 61% | 1010 hPa | 0 mm | - | 0 W/m² | - |
| 1778290333 | 17.22° C | 59% | 1010.1 hPa | 0 mm | - | 0 W/m² | - |
| 1778290029 | 17.22° C | 53% | 1010 hPa | 0 mm | - | 0 W/m² | - |
| 1778289726 | 17.22° C | 53% | 1009.8 hPa | 0 mm | - | 0 W/m² | - |
| 1778289424 | 16.67° C | 53% | 1009.9 hPa | 0 mm | - | 0 W/m² | - |
| 1778289121 | 17.22° C | 59% | 1009.8 hPa | 0 mm | - | 0 W/m² | - |
| 1778288819 | 17.22° C | 55% | 1010 hPa | 0 mm | - | 0 W/m² | - |
| 1778288515 | 17.22° C | 53% | 1009.9 hPa | 0 mm | - | 0 W/m² | - |
| 1778288213 | 17.22° C | 52% | 1009.9 hPa | 0 mm | - | 0 W/m² | - |
| 1778287909 | 17.22° C | 53% | 1009.9 hPa | 0 mm | - | 0 W/m² | - |
| 1778287604 | 17.78° C | 53% | 1009.9 hPa | 0 mm | - | 1 W/m² | - |
| 1778287302 | 17.78° C | 52% | 1009.9 hPa | 0 mm | - | 2 W/m² | - |
| 1778287001 | 18.33° C | 51% | 1010.2 hPa | 0 mm | - | 3 W/m² | - |
| 1778286697 | 18.33° C | 52% | 1010.2 hPa | 0 mm | - | 5 W/m² | - |
| 1778286395 | 18.33° C | 50% | 1010.1 hPa | 0 mm | - | 8 W/m² | - |
| 1778286092 | 18.89° C | 51% | 1010.2 hPa | 0 mm | - | 10 W/m² | - |
| 1778285790 | 18.89° C | 48% | 1010.2 hPa | 0 mm | - | 12 W/m² | - |
| 1778285485 | 19.44° C | 47% | 1010 hPa | 0 mm | - | 15 W/m² | - |
| 1778285184 | 19.44° C | 46% | 1010.3 hPa | 0 mm | - | 20 W/m² | - |
| 1778284880 | 20° C | 46% | 1010.2 hPa | 0 mm | - | 22 W/m² | - |
| 1778284577 | 20° C | 44% | 1010.2 hPa | 0 mm | - | 27 W/m² | - |
| 1778284274 | 20° C | 44% | 1010.2 hPa | 0 mm | - | 35 W/m² | - |
| 1778283971 | 20.56° C | 43% | 1010.1 hPa | 0 mm | - | 41 W/m² | - |
| 1778283667 | 20.56° C | 43% | 1010.1 hPa | 0 mm | - | 47 W/m² | - |
| 1778283367 | 20.56° C | 43% | 1010 hPa | 0 mm | - | 55 W/m² | - |
* Rain latest hour (hover to see other rain measurements)
** Current wind speed in m/s (hover to see current wind gust speed)